FENGYUN 1C DEB

Satellite information

Favourite Embed

Satellite Type and Status

DEBRISIN ORBIT

Key statistics

Satellite FENGYUN 1C DEB at a glance.

Uptime

9666

Days in orbit

Revolutions

≈ 14.3

Per day

Orbit

SSO

Sun Synchronous Orbit

Inclination

98.4

Latest

Satellite identification and parameters

Extended collection of information and parameters for FENGYUN 1C DEB.

Object identification

Identified? True

Debris? True

Object name: FENGYUN 1C DEB

International designator: 1999-025FU

Object number (NORAD): 29874

Object ID (CCSDS): 29874

Country: PEOPLES REPUBLIC OF CHINA (PRC)

Current information (Y/N): Y

RCS size: SMALL

Orbital parameters

Period: 100.846 minutes

Inclination: 98.3774 deg

SMA: 7176.813 km

Apoapsis: 872.818 km

Periapsis: 724.539 km

RAAN: 197.5052 deg

Eccentricy: 0.01033047

Argument of periapsis: 130.437 deg

Mean anomaly: 286.5971 deg

Mean motion: 14.27924616 rev/day

Mean motion (dot): 0.00006071 rev/day2

B* drag term: 0.0023290157 1/REarth

Two-line elements (TLE)

Creation date: Oct. 26, 2025, 2:54 a.m.

Reference frame: TEME

Reference center: EARTH

Epoch: Oct. 25, 2025, 5:05 p.m. UTC

TLE line 0: 0 FENGYUN 1C DEB

TLE line 1: 1 29874U 99025FU 25298.71243157 .00006071 00000-0 23290-2 0 9993

TLE line 2: 2 29874 98.3774 197.5052 0103305 130.4370 286.5971 14.27924616961623

Live tracking on map

Real-time ground track for satellite FENGYUN 1C DEB.

In-orbit conjunctions

A list of the most updated potential collisions computed for object FENGYUN 1C DEB.

Target Orbit TCA Probability of collision Miss distance Type
CZ-6A DEB SSO 2024-11-11 12:23:47 0.0002237819 324.0 (m) DEBRIS
CZ-4B DEB SSO 2024-10-01 05:41:00 0.000115187 53.0 (m) DEBRIS

Associated space launch

Chinese polar orbiting meteorological satellite

FENGYUN 1C DEB was lifted into orbit during the mission ‘Long March 4B | Feng Yun 1C’, on board a Long March 4B space rocket.

The launch took place on May 10, 1999, 1:33 a.m. from Launch Complex 7.

For more information about the launch, click the button.

Launch to space Long March 4B | Feng Yun 1C
Long March 4B | Feng Yun 1C

Agency: N/A

Status: Launch Successful

Launch date: May 10, 1999, 1:33 a.m. UTC

Rocket: Long March 4B

Launch pad: Launch Complex 7

Location: Taiyuan Satellite Launch Center, People's Republic of China

...

Latest news about this satellite

There are no fresh news available about this satellite. Check back as we update our databases every day.


Newsletter sign-up

Weekly statistics, charts and insights to help you stay on top of the space industry.